APRIZESAT 2 1 28366U 04025A 25312.70762660 .00000507 00000+0 17058-3 0 9998 2 28366 98.0821 126.4364 0105475 195.1557 164.6464 14.37894717119953 SAUDICOMSAT 1 1 28369U 04025D 25312.73644587 .00000850 00000+0 20665-3 0 9990 2 28369 98.5777 311.9578 0031909 340.8847 19.1149 14.55216182132065 SAUDICOMSAT 2 1 28370U 04025E 25312.49766003 .00000559 00000+0 15506-3 0 9997 2 28370 98.6666 313.5140 0055152 206.9539 152.8787 14.49767138128124 APRIZESAT 1 1 28372U 04025G 25312.45940113 .00000513 00000+0 13848-3 0 9998 2 28372 98.6316 312.1944 0045865 105.9510 254.6745 14.51588435129885 NANOSAT-1 1 28493U 04049B 25312.81206866 .00002535 00000+0 34681-3 0 9992 2 28493 98.1998 79.6130 0002822 285.8254 74.2645 14.79444864122853 SAUDICOMSAT 7 1 31119U 07012C 25312.84923414 .00001126 00000+0 21173-3 0 9999 2 31119 98.3493 277.9150 0056303 165.7218 194.5592 14.65687956990157 SAUDICOMSAT 6 1 31121U 07012E 25312.84060785 .00001376 00000+0 27414-3 0 9996 2 31121 98.3796 271.7209 0071111 293.4570 65.9166 14.62166694987979 SAUDICOMSAT 5 1 31124U 07012H 25312.85471450 .00001438 00000+0 25723-3 0 9995 2 31124 98.3209 278.7123 0049115 98.6138 262.0635 14.67691939991265 SAUDICOMSAT 3 1 31125U 07012J 25312.85064001 .00001943 00000+0 32770-3 0 9997 2 31125 98.2864 279.2893 0040364 30.4487 329.9050 14.70151645992444 SAUDICOMSAT 4 1 31127U 07012L 25312.85611212 .00001162 00000+0 22489-3 0 9990 2 31127 98.3693 276.3875 0062800 226.0755 133.5254 14.64104087989133 APRIZESAT 4 1 35684U 09041D 25312.65597404 .00001531 00000+0 19093-3 0 9997 2 35684 98.1682 18.3661 0042774 317.8524 41.9402 14.83377714878661 APRIZESAT 3 1 35686U 09041F 25312.61270514 .00003847 00000+0 34145-3 0 9992 2 35686 98.1774 90.8496 0064292 75.6048 285.2296 14.95230070883403 S-NET D 1 43186U 18014G 25312.65147014 .00010079 00000+0 56217-3 0 9997 2 43186 97.5479 214.0301 0010763 65.7604 294.4751 15.13716331425364 S-NET B 1 43187U 18014H 25312.52677895 .00010431 00000+0 58198-3 0 9991 2 43187 97.5487 213.8854 0011351 61.8865 298.3512 15.13690201425347 S-NET A 1 43188U 18014J 25312.45300352 .00008754 00000+0 48881-3 0 9998 2 43188 97.5495 213.9834 0011250 62.6283 297.6092 15.13715781425332 S-NET C 1 43189U 18014K 25312.66184016 .00010394 00000+0 57978-3 0 9999 2 43189 97.5513 214.2301 0012561 55.1904 305.0507 15.13686516423910 SALSAT 1 46495U 20068K 25312.75973230 .00014095 00000+0 55869-3 0 9997 2 46495 97.8772 298.2246 0010905 5.4820 354.6534 15.25466239281708 OOV-CUBE (TUBSAT-30) 1 60240U 24128F 25312.44915167 .00004685 00000+0 36528-3 0 9998 2 60240 61.9957 274.5099 0058840 86.9423 273.8398 15.01284848 72958